Regional Weather Roundup
Issued by NWS

Home | Current Version | Previous Version | Graphics & Text | Print | Product List | Glossary On
Versions: 1 2 3 4 5 6 7 8 9 10 11 12 13 14 15 16 17 18 19 20 21 22 23 24 25 26 27 28 29 30 31 32 33 34 35 36 37 38 39 40 41 42 43 44 45 46 47 48 49 50
000
ASUS44 KMEG 230710
RWRTN
TENNESSEE HOURLY STATE WEATHER ROUNDUP
NATIONAL WEATHER SERVICE MEMPHIS TN
200 AM CDT SUN APR 23 2017

TNZ002-004-019-021-049-052-054-088>092-230800-
WEST TENNESSEE

CITY           SKY/WX    TMP DP  RH WIND       PRES   REMARKS
MEMPHIS INTL   DRIZZLE   51  51 100 N8        29.90F FOG
NWS MEMPHIS      N/A     51 N/A N/A MISG        N/A
JACKSON        CLOUDY    52  51  97 N12       29.90S FOG
DYERSBURG      CLOUDY    52  46  80 N8        29.93F
SOMERVILLE     CLOUDY    52  52 100 VRB7G16   29.88F FOG
UNION CITY     CLOUDY    54  43  66 NE13G20   29.91F
BOLIVAR        CLOUDY    54  52  94 N5        29.87F FOG
PARIS          CLOUDY    48  43  81 NE10      29.90F
HUNTINGDON     CLOUDY    52  46  82 NE13G21   29.89F
LEXINGTON      CLOUDY    52  50  93 N9G16     29.86F FOG
SAVANNAH       CLOUDY    54  52  94 NE6       29.84F FOG
$$

TNZ008-025-027-028-033-062-065-066-230800-
NORTH MIDDLE TENNESSEE

CITY           SKY/WX    TMP DP  RH WIND       PRES   REMARKS
NASHVILLE      DRIZZLE   51  49  92 NE14      29.86F FOG
PORTLAND       CLOUDY    48  48 100 NE10G17   29.87F FOG
CLARKSVILLE    CLOUDY    51  43  74 NE12      29.90F
SMYRNA         LGT RAIN  52  51  97 N10       29.86F FOG
COOKEVILLE     CLOUDY    52  52 100 NE7       29.82F
CROSSVILLE     FOG       50  49  96 NE8       29.85F VSB 1/2
$$

TNZ061-075-076-078-094-096-097-230800-
SOUTH MIDDLE TENNESSEE

CITY           SKY/WX    TMP DP  RH WIND       PRES   REMARKS
FAYETTEVILLE   CLOUDY    55  55 100 N5        29.79F
TULLAHOMA      CLOUDY    54  54 100 N7        29.81F VSB 1
WINCHESTER     CLOUDY    59  57  94 N6        29.80
MCMINNVILLE    CLOUDY    54  54 100 N8        29.82F
COLUMBIA       CLOUDY   N/A N/A N/A N3        29.83S
SHELBYVILLE    CLOUDY    54  54 100 N6        29.83F
$$

TNZ017-018-042-046-047-230800-
NORTHEAST TENNESSEE

CITY           SKY/WX    TMP DP  RH WIND       PRES   REMARKS
TRI CITIES     CLOUDY    55  54  96 N3        29.88F
ELIZABETHTON   DRIZZLE   57  55  94 E5        29.87F
$$

TNZ012-013-036-069-073-074-230800-
CENTRAL EAST TENNESSEE

CITY           SKY/WX    TMP DP  RH WIND       PRES   REMARKS
KNOXVILLE      LGT RAIN  58  56  93 E5        29.84F
OAK RIDGE      CLOUDY    56  54  93 E6        29.86F
DOWNTOWN KNOXV CLOUDY    59  59 100 CALM      29.85F
GATLINBURG     MOCLDY    55  55 100 CALM      29.85S
MORRISTOWN     CLOUDY    57  57 100 E6        29.85F
JACKSBORO      CLOUDY    52  50  93 CALM      29.90F
$$

TNZ083-085-099-230800-
SOUTHEAST TENNESSEE

CITY           SKY/WX    TMP DP  RH WIND       PRES   REMARKS
CHATTANOOGA    LGT RAIN  60  59  96 CALM      29.82F
$$

SKY/WX REPORTED AS FAIR MEANS FEW OR NO CLOUDS BELOW
12 THOUSAND FEET.




USA.gov is the U.S. government's official web portal to all federal, state and local government web resources and services.